Time,TemperatureF,DewpointF,PressureIn,WindDirection,WindDirectionDegrees,WindSpeedMPH,WindSpeedGustMPH,Humidity,HourlyPrecipIn,Conditions,Clouds,dailyrainin,SoftwareType,DateUTC
2013-05-18 00:03:00,76.0,66.0,30.07,West,271,0.0,0.0,72,0.00,,,0.00,,2013-05-18 04:03:00,
2013-05-18 00:12:00,76.0,66.0,30.07,West,271,0.0,0.0,72,0.00,,,0.00,,2013-05-18 04:12:00,
2013-05-18 00:23:00,76.0,66.0,30.07,West,271,0.0,0.0,72,0.00,,,0.00,,2013-05-18 04:23:00,
2013-05-18 00:33:00,76.0,67.0,30.07,West,271,0.0,0.0,73,0.00,,,0.00,,2013-05-18 04:33:00,
2013-05-18 00:43:00,76.0,67.0,30.07,West,271,0.0,0.0,73,0.00,,,0.00,,2013-05-18 04:43:00,
2013-05-18 00:52:00,77.0,68.0,30.06,SE,126,2.0,9.0,73,0.00,,,0.00,,2013-05-18 04:52:00,
2013-05-18 01:02:00,77.0,67.0,30.06,ESE,119,0.0,9.0,72,0.00,,,0.00,,2013-05-18 05:02:00,
2013-05-18 01:13:00,77.0,67.0,30.06,ESE,119,0.0,9.0,72,0.00,,,0.00,,2013-05-18 05:13:00,
2013-05-18 01:22:00,77.0,67.0,30.06,ESE,104,3.0,10.0,72,0.00,,,0.00,,2013-05-18 05:22:00,
2013-05-18 01:32:00,77.0,67.0,30.06,ESE,103,1.0,8.0,72,0.00,,,0.00,,2013-05-18 05:32:00,
2013-05-18 01:42:00,77.0,67.0,30.06,ESE,103,1.0,8.0,72,0.00,,,0.00,,2013-05-18 05:42:00,
2013-05-18 01:52:00,77.0,68.0,30.06,East,99,2.0,8.0,74,0.00,,,0.00,,2013-05-18 05:52:00,
2013-05-18 02:02:00,77.0,68.0,30.06,ESE,107,1.0,6.0,74,0.00,,,0.00,,2013-05-18 06:02:00,
2013-05-18 02:11:00,77.0,68.0,30.06,ESE,107,1.0,6.0,74,0.00,,,0.00,,2013-05-18 06:11:00,
2013-05-18 02:22:00,76.0,67.0,30.05,East,101,1.0,6.0,75,0.00,,,0.00,,2013-05-18 06:22:00,
2013-05-18 02:32:00,76.0,67.0,30.05,ESE,107,1.0,8.0,75,0.00,,,0.00,,2013-05-18 06:32:00,
2013-05-18 02:42:00,76.0,67.0,30.05,ESE,107,1.0,8.0,75,0.00,,,0.00,,2013-05-18 06:42:00,
2013-05-18 02:52:00,76.0,68.0,30.05,SSE,147,1.0,9.0,76,0.00,,,0.00,,2013-05-18 06:52:00,
2013-05-18 03:01:00,76.0,68.0,30.04,East,79,0.0,6.0,76,0.00,,,0.00,,2013-05-18 07:01:00,
2013-05-18 03:12:00,76.0,68.0,30.04,East,79,0.0,6.0,76,0.00,,,0.00,,2013-05-18 07:12:00,
2013-05-18 03:21:00,76.0,69.0,30.04,ENE,62,0.0,8.0,78,0.00,,,0.00,,2013-05-18 07:21:00,
2013-05-18 03:32:00,75.0,68.0,30.04,SE,130,0.0,6.0,79,0.00,,,0.00,,2013-05-18 07:32:00,
2013-05-18 03:42:00,75.0,68.0,30.04,SE,130,0.0,6.0,79,0.00,,,0.00,,2013-05-18 07:42:00,
2013-05-18 03:53:00,75.0,68.0,30.04,ESE,106,0.0,7.0,80,0.00,,,0.00,,2013-05-18 07:53:00,
2013-05-18 04:01:00,75.0,68.0,30.03,ESE,106,0.0,7.0,80,0.00,,,0.00,,2013-05-18 08:01:00,
2013-05-18 04:11:00,75.0,68.0,30.03,ESE,106,0.0,7.0,80,0.00,,,0.00,,2013-05-18 08:11:00,
2013-05-18 04:21:00,75.0,69.0,30.03,ESE,109,0.0,6.0,81,0.00,,,0.00,,2013-05-18 08:21:00,
2013-05-18 04:32:00,75.0,69.0,30.03,ESE,109,0.0,0.0,82,0.00,,,0.00,,2013-05-18 08:32:00,
2013-05-18 04:42:00,75.0,69.0,30.03,ESE,109,0.0,0.0,82,0.00,,,0.00,,2013-05-18 08:42:00,
2013-05-18 04:52:00,75.0,69.0,30.04,ESE,109,0.0,0.0,83,0.00,,,0.00,,2013-05-18 08:52:00,
2013-05-18 05:02:00,75.0,70.0,30.04,ESE,109,0.0,0.0,84,0.00,,,0.00,,2013-05-18 09:02:00,
2013-05-18 05:12:00,75.0,70.0,30.04,ESE,109,0.0,0.0,84,0.00,,,0.00,,2013-05-18 09:12:00,
2013-05-18 05:22:00,74.0,69.0,30.03,ESE,109,0.0,0.0,84,0.00,,,0.00,,2013-05-18 09:22:00,
2013-05-18 05:33:00,74.0,69.0,30.04,ESE,109,0.0,0.0,85,0.00,,,0.00,,2013-05-18 09:33:00,
2013-05-18 05:43:00,74.0,69.0,30.04,ESE,109,0.0,0.0,85,0.00,,,0.00,,2013-05-18 09:43:00,
2013-05-18 05:53:00,74.0,70.0,30.04,ENE,71,0.0,5.0,86,0.00,,,0.00,,2013-05-18 09:53:00,
2013-05-18 06:03:00,74.0,70.0,30.04,ENE,71,0.0,0.0,87,0.00,,,0.00,,2013-05-18 10:03:00,
2013-05-18 06:12:00,74.0,70.0,30.04,ENE,71,0.0,0.0,87,0.00,,,0.00,,2013-05-18 10:12:00,
2013-05-18 06:23:00,74.0,70.0,30.04,ENE,71,0.0,0.0,88,0.00,,,0.00,,2013-05-18 10:23:00,
2013-05-18 06:33:00,74.0,70.0,30.05,ENE,71,0.0,0.0,88,0.00,,,0.00,,2013-05-18 10:33:00,
2013-05-18 06:42:00,74.0,70.0,30.05,ENE,71,0.0,0.0,88,0.00,,,0.00,,2013-05-18 10:42:00,
2013-05-18 06:53:00,74.0,71.0,30.05,ENE,71,0.0,0.0,89,0.00,,,0.00,,2013-05-18 10:53:00,
2013-05-18 07:03:00,74.0,71.0,30.06,ENE,71,0.0,0.0,90,0.00,,,0.00,,2013-05-18 11:03:00,
2013-05-18 07:12:00,74.0,71.0,30.06,ENE,71,0.0,0.0,90,0.00,,,0.00,,2013-05-18 11:12:00,
2013-05-18 07:22:00,74.0,71.0,30.06,ENE,71,0.0,0.0,90,0.00,,,0.00,,2013-05-18 11:22:00,
2013-05-18 07:33:00,74.0,71.0,30.06,ENE,71,0.0,6.0,90,0.00,,,0.00,,2013-05-18 11:33:00,
2013-05-18 07:42:00,74.0,71.0,30.06,ENE,71,0.0,6.0,90,0.00,,,0.00,,2013-05-18 11:42:00,
2013-05-18 07:52:00,74.0,71.0,30.06,ESE,112,0.0,5.0,91,0.00,,,0.00,,2013-05-18 11:52:00,
2013-05-18 08:02:00,75.0,72.0,30.06,ESE,112,0.0,0.0,91,0.00,,,0.00,,2013-05-18 12:02:00,
2013-05-18 08:12:00,75.0,72.0,30.06,ESE,112,0.0,0.0,91,0.00,,,0.00,,2013-05-18 12:12:00,
2013-05-18 08:23:00,76.0,73.0,30.07,ESE,112,1.0,5.0,89,0.00,,,0.00,,2013-05-18 12:23:00,
2013-05-18 08:33:00,76.0,72.0,30.07,ESE,104,0.0,8.0,88,0.00,,,0.00,,2013-05-18 12:33:00,
2013-05-18 08:42:00,76.0,72.0,30.07,ESE,104,0.0,8.0,88,0.00,,,0.00,,2013-05-18 12:42:00,
2013-05-18 08:52:00,76.0,72.0,30.08,SE,130,3.0,9.0,86,0.00,,,0.00,,2013-05-18 12:52:00,
2013-05-18 09:01:00,77.0,72.0,30.08,ESE,121,1.0,6.0,86,0.00,,,0.00,,2013-05-18 13:01:00,
2013-05-18 09:11:00,77.0,72.0,30.08,ESE,121,1.0,6.0,86,0.00,,,0.00,,2013-05-18 13:11:00,
2013-05-18 09:21:00,77.0,72.0,30.09,East,90,0.0,7.0,84,0.00,,,0.00,,2013-05-18 13:21:00,
2013-05-18 09:33:00,78.0,72.0,30.09,ESE,110,1.0,6.0,83,0.00,,,0.00,,2013-05-18 13:33:00,
2013-05-18 09:43:00,78.0,72.0,30.09,ESE,110,1.0,6.0,83,0.00,,,0.00,,2013-05-18 13:43:00,
2013-05-18 09:53:00,79.0,72.0,30.09,ESE,117,0.0,0.0,80,0.00,,,0.00,,2013-05-18 13:53:00,
2013-05-18 10:03:00,80.0,73.0,30.09,ESE,102,0.0,2.0,79,0.00,,,0.00,,2013-05-18 14:03:00,
2013-05-18 10:12:00,80.0,73.0,30.09,ESE,102,0.0,2.0,79,0.00,,,0.00,,2013-05-18 14:12:00,
2013-05-18 10:22:00,81.0,72.0,30.09,SE,127,0.0,7.0,73,0.00,,,0.00,,2013-05-18 14:22:00,
2013-05-18 10:33:00,82.0,72.0,30.09,East,93,0.0,6.0,73,0.00,,,0.00,,2013-05-18 14:33:00,
2013-05-18 10:42:00,82.0,72.0,30.09,East,93,0.0,6.0,73,0.00,,,0.00,,2013-05-18 14:42:00,
2013-05-18 10:54:00,83.0,72.0,30.09,SSE,161,1.0,6.0,70,0.00,,,0.00,,2013-05-18 14:54:00,
2013-05-18 11:03:00,83.0,71.0,30.09,East,90,0.0,7.0,68,0.00,,,0.00,,2013-05-18 15:03:00,
2013-05-18 11:13:00,83.0,71.0,30.09,East,90,0.0,7.0,68,0.00,,,0.00,,2013-05-18 15:13:00,
2013-05-18 11:23:00,84.0,72.0,30.09,East,90,1.0,6.0,68,0.00,,,0.00,,2013-05-18 15:23:00,
2013-05-18 11:33:00,85.0,72.0,30.09,SE,141,0.0,8.0,65,0.00,,,0.00,,2013-05-18 15:33:00,
2013-05-18 11:43:00,85.0,72.0,30.09,SE,141,0.0,8.0,65,0.00,,,0.00,,2013-05-18 15:43:00,
2013-05-18 11:54:00,87.0,72.0,30.08,ESE,122,1.0,7.0,62,0.00,,,0.00,,2013-05-18 15:54:00,
2013-05-18 12:03:00,88.0,71.0,30.08,ESE,121,6.0,10.0,57,0.00,,,0.00,,2013-05-18 16:03:00,
2013-05-18 12:22:00,89.0,71.0,30.08,SE,134,1.0,8.0,55,0.00,,,0.00,,2013-05-18 16:22:00,
2013-05-18 12:33:00,89.0,70.0,30.08,South,185,1.0,7.0,54,0.00,,,0.00,,2013-05-18 16:33:00,
2013-05-18 12:52:00,87.0,68.0,30.08,ESE,110,0.0,7.0,53,0.00,,,0.00,,2013-05-18 16:52:00,
2013-05-18 13:02:00,87.0,68.0,30.07,SE,138,1.0,6.0,54,0.00,,,0.00,,2013-05-18 17:02:00,
2013-05-18 13:12:00,87.0,68.0,30.07,SE,138,1.0,6.0,54,0.00,,,0.00,,2013-05-18 17:12:00,
2013-05-18 13:22:00,86.0,66.0,30.06,SW,224,2.0,10.0,52,0.00,,,0.00,,2013-05-18 17:22:00,
2013-05-18 13:32:00,86.0,66.0,30.06,SSW,193,1.0,6.0,51,0.00,,,0.00,,2013-05-18 17:32:00,
2013-05-18 13:42:00,86.0,66.0,30.06,SSW,193,1.0,6.0,51,0.00,,,0.00,,2013-05-18 17:42:00,
2013-05-18 13:52:00,87.0,65.0,30.06,South,180,1.0,9.0,49,0.00,,,0.00,,2013-05-18 17:52:00,
2013-05-18 14:01:00,88.0,65.0,30.05,WNW,298,2.0,8.0,46,0.00,,,0.00,,2013-05-18 18:01:00,
2013-05-18 14:12:00,88.0,65.0,30.05,WNW,298,2.0,8.0,46,0.00,,,0.00,,2013-05-18 18:12:00,
2013-05-18 14:21:00,90.0,66.0,30.06,SE,132,2.0,9.0,45,0.00,,,0.00,,2013-05-18 18:21:00,
2013-05-18 14:32:00,90.0,62.0,30.05,WNW,287,3.0,7.0,40,0.00,,,0.00,,2013-05-18 18:32:00,
2013-05-18 14:42:00,90.0,62.0,30.05,WNW,287,3.0,7.0,40,0.00,,,0.00,,2013-05-18 18:42:00,
2013-05-18 14:52:00,90.0,62.0,30.04,SW,229,2.0,7.0,39,0.00,,,0.00,,2013-05-18 18:52:00,
2013-05-18 15:02:00,91.0,63.0,30.05,SSW,197,2.0,6.0,39,0.00,,,0.00,,2013-05-18 19:02:00,
2013-05-18 15:12:00,91.0,63.0,30.05,SSW,197,2.0,6.0,39,0.00,,,0.00,,2013-05-18 19:12:00,
2013-05-18 15:22:00,91.0,60.0,30.04,North,0,5.0,10.0,36,0.00,,,0.00,,2013-05-18 19:22:00,
2013-05-18 15:32:00,90.0,60.0,30.04,SSW,194,3.0,10.0,37,0.00,,,0.00,,2013-05-18 19:32:00,
2013-05-18 15:42:00,90.0,60.0,30.04,SSW,194,3.0,10.0,37,0.00,,,0.00,,2013-05-18 19:42:00,
2013-05-18 15:52:00,91.0,59.0,30.03,WSW,240,2.0,7.0,35,0.00,,,0.00,,2013-05-18 19:52:00,
2013-05-18 16:02:00,91.0,59.0,30.03,WNW,289,2.0,9.0,34,0.00,,,0.00,,2013-05-18 20:02:00,
2013-05-18 16:11:00,91.0,59.0,30.03,WNW,289,2.0,9.0,34,0.00,,,0.00,,2013-05-18 20:11:00,
2013-05-18 16:22:00,90.0,59.0,30.03,WNW,299,2.0,12.0,36,0.00,,,0.00,,2013-05-18 20:22:00,
2013-05-18 16:32:00,90.0,60.0,30.02,West,262,2.0,10.0,37,0.00,,,0.00,,2013-05-18 20:32:00,
2013-05-18 16:42:00,90.0,60.0,30.02,West,262,2.0,10.0,37,0.00,,,0.00,,2013-05-18 20:42:00,
2013-05-18 16:52:00,90.0,58.0,30.01,WNW,293,5.0,9.0,34,0.00,,,0.00,,2013-05-18 20:52:00,
2013-05-18 17:01:00,90.0,59.0,30.01,SW,227,0.0,10.0,35,0.00,,,0.00,,2013-05-18 21:01:00,
2013-05-18 17:12:00,90.0,59.0,30.01,SW,227,0.0,10.0,35,0.00,,,0.00,,2013-05-18 21:12:00,
2013-05-18 17:22:00,90.0,59.0,30.01,WSW,248,2.0,9.0,35,0.00,,,0.00,,2013-05-18 21:22:00,
2013-05-18 17:33:00,90.0,59.0,30.00,WSW,238,1.0,8.0,35,0.00,,,0.00,,2013-05-18 21:33:00,
2013-05-18 17:43:00,90.0,59.0,30.00,WSW,238,1.0,8.0,35,0.00,,,0.00,,2013-05-18 21:43:00,
2013-05-18 17:53:00,90.0,60.0,30.00,SSW,200,1.0,9.0,37,0.00,,,0.00,,2013-05-18 21:53:00,
2013-05-18 18:03:00,89.0,59.0,30.00,WNW,297,4.0,10.0,37,0.00,,,0.00,,2013-05-18 22:03:00,
2013-05-18 18:13:00,89.0,59.0,30.00,WNW,297,4.0,10.0,37,0.00,,,0.00,,2013-05-18 22:13:00,
2013-05-18 18:23:00,88.0,60.0,30.00,SW,215,2.0,10.0,39,0.00,,,0.00,,2013-05-18 22:23:00,
2013-05-18 18:33:00,87.0,60.0,30.00,West,265,3.0,9.0,40,0.00,,,0.00,,2013-05-18 22:33:00,
2013-05-18 18:42:00,86.0,60.0,30.00,WNW,294,3.0,12.0,42,0.00,,,0.00,,2013-05-18 22:42:00,
2013-05-18 18:53:00,86.0,60.0,30.00,WNW,294,3.0,12.0,42,0.00,,,0.00,,2013-05-18 22:53:00,
2013-05-18 19:02:00,86.0,60.0,30.00,WNW,298,7.0,12.0,42,0.00,,,0.00,,2013-05-18 23:02:00,
2013-05-18 19:12:00,86.0,60.0,30.00,WNW,298,7.0,12.0,42,0.00,,,0.00,,2013-05-18 23:12:00,
2013-05-18 19:22:00,85.0,62.0,30.01,WNW,301,5.0,9.0,46,0.00,,,0.00,,2013-05-18 23:22:00,
2013-05-18 19:32:00,84.0,62.0,30.01,WNW,291,2.0,8.0,48,0.00,,,0.00,,2013-05-18 23:32:00,
2013-05-18 19:42:00,84.0,62.0,30.01,WNW,291,2.0,8.0,48,0.00,,,0.00,,2013-05-18 23:42:00,
2013-05-18 19:53:00,83.0,63.0,30.01,WNW,299,5.0,10.0,51,0.00,,,0.00,,2013-05-18 23:53:00,
2013-05-18 20:01:00,82.0,63.0,30.01,NW,324,2.0,8.0,53,0.00,,,0.00,,2013-05-19 00:01:00,
2013-05-18 20:12:00,82.0,63.0,30.01,NW,324,2.0,8.0,53,0.00,,,0.00,,2013-05-19 00:12:00,
2013-05-18 20:22:00,81.0,64.0,30.01,WNW,287,2.0,7.0,56,0.00,,,0.00,,2013-05-19 00:22:00,
2013-05-18 20:32:00,81.0,65.0,30.01,WNW,298,1.0,7.0,58,0.00,,,0.00,,2013-05-19 00:32:00,
2013-05-18 20:41:00,81.0,65.0,30.01,WNW,298,1.0,7.0,58,0.00,,,0.00,,2013-05-19 00:41:00,
2013-05-18 20:52:00,80.0,64.0,30.02,WNW,290,1.0,6.0,59,0.00,,,0.00,,2013-05-19 00:52:00,
2013-05-18 21:01:00,80.0,64.0,30.02,West,275,3.0,8.0,59,0.00,,,0.00,,2013-05-19 01:01:00,
2013-05-18 21:11:00,80.0,64.0,30.02,West,275,3.0,8.0,59,0.00,,,0.00,,2013-05-19 01:11:00,
2013-05-18 21:22:00,79.0,64.0,30.02,West,267,1.0,7.0,61,0.00,,,0.00,,2013-05-19 01:22:00,
2013-05-18 21:32:00,79.0,65.0,30.03,NW,307,1.0,5.0,63,0.00,,,0.00,,2013-05-19 01:32:00,
2013-05-18 21:42:00,79.0,65.0,30.03,NW,307,1.0,5.0,63,0.00,,,0.00,,2013-05-19 01:42:00,
2013-05-18 21:52:00,78.0,66.0,30.03,NNW,332,3.0,7.0,66,0.00,,,0.00,,2013-05-19 01:52:00,
2013-05-18 22:01:00,78.0,66.0,30.03,West,263,0.0,7.0,66,0.00,,,0.00,,2013-05-19 02:01:00,
2013-05-18 22:11:00,78.0,66.0,30.03,West,263,0.0,7.0,66,0.00,,,0.00,,2013-05-19 02:11:00,
2013-05-18 22:22:00,78.0,66.0,30.03,West,263,0.0,0.0,67,0.00,,,0.00,,2013-05-19 02:22:00,
2013-05-18 22:32:00,77.0,66.0,30.03,West,263,0.0,0.0,68,0.00,,,0.00,,2013-05-19 02:32:00,
2013-05-18 22:42:00,77.0,66.0,30.03,West,263,0.0,0.0,68,0.00,,,0.00,,2013-05-19 02:42:00,
2013-05-18 22:52:00,77.0,66.0,30.04,WNW,291,0.0,6.0,68,0.00,,,0.00,,2013-05-19 02:52:00,
2013-05-18 23:01:00,77.0,66.0,30.04,WNW,289,0.0,3.0,69,0.00,,,0.00,,2013-05-19 03:01:00,
2013-05-18 23:11:00,77.0,66.0,30.04,WNW,289,0.0,3.0,69,0.00,,,0.00,,2013-05-19 03:11:00,
2013-05-18 23:22:00,77.0,66.0,30.06,WNW,289,0.0,0.0,70,0.00,,,0.00,,2013-05-19 03:22:00,
2013-05-18 23:33:00,77.0,66.0,30.06,WNW,289,0.0,0.0,70,0.00,,,0.00,,2013-05-19 03:33:00,
2013-05-18 23:42:00,77.0,66.0,30.06,WNW,289,0.0,0.0,70,0.00,,,0.00,,2013-05-19 03:42:00,
2013-05-18 23:53:00,76.0,66.0,30.06,WNW,289,0.0,0.0,72,0.00,,,0.00,,2013-05-19 03:53:00,